Location: Gorlice
(49.6633°N, 21.1693°E)
Time: 15:53:06
(UTC+01:00)

ISS - Pass Details

Date: 29 January 2019
Orbit: 403 x 411 km, 51.6° (Epoch: 18 February)

Event Time Altitude Azimuth Distance (km) Brightness Sun altitude
Rises 18:18:42 0° 266° (W) 2,331 1.8 -18.4°
Reaches altitude 10° 18:20:48 10° 270° (W) 1,473 0.3 -18.7°
Maximum altitude 18:24:05 63° 353° (N) 462 -3.7 -19.2°
Enters shadow 18:24:16 61° 13° (NNE) 469 -3.7 -19.3°
